Location: Wiesbaden
(50.0830°N, 8.2500°E)
Time: 20:14:15
(UTC+02:00)

ISS - Visible Passes

Search period start: 16 April 2026 00:00
Search period end: 26 April 2026 00:00
Orbit: 415 x 424 km, 51.6° (Epoch: 15 April)

Date Brightness Start Highest point End Pass type
(mag) Time Alt. Az. Time Alt. Az. Time Alt. Az.
20 Apr -1.7 05:27:17 10° SSW 05:29:52 21° SE 05:32:28 10° E visible
21 Apr -1.3 04:41:05 11° SSE 04:42:38 14° SE 04:44:30 10° ESE visible
22 Apr -2.9 05:28:26 11° SW 05:31:32 42° SSE 05:34:45 10° E visible
23 Apr -2.5 04:42:45 21° S 04:44:12 30° SSE 04:47:12 10° E visible
24 Apr -1.9 03:57:01 21° SE 03:57:01 21° SE 03:59:29 10° E visible
24 Apr -3.7 05:29:58 10° WSW 05:33:20 78° SSE 05:36:43 10° ENE visible
25 Apr -0.9 03:11:14 11° ESE 03:11:14 11° ESE 03:11:29 10° ESE visible
25 Apr -3.6 04:44:10 25° SW 04:45:53 59° SSE 04:49:13 10° ENE visible
